EA2CW-13 Weather Reports


time (UTC)temp
C
wind
direction
speed
KPH
gust
KPH
rain 1hr
cm
rain 24hr
cm
rain mn
cm
humidity
%
barometer
mb
20260503050434 15 0.0 0.0 0.00 0.00 0.00 95 1049.7
20260503044858 15 0.0 0.0 0.00 0.00 0.00 95 1049.7
20260503043322 15 0.0 0.0 0.00 0.00 0.00 95 1049.6
20260503041746 15 0.0 0.0 0.00 0.00 0.00 95 1049.5
20260503040210 15 0.0 0.0 0.00 0.00 0.00 95 1049.6
20260503034634 15 0.0 0.0 0.00 0.00 0.00 94 1049.6
20260503033058 15 0.0 0.0 0.00 0.00 0.00 94 1049.7
20260503031522 15 0.0 0.0 0.00 0.00 0.00 94 1049.8
20260503025946 15 0.0 0.0 0.00 0.00 0.00 93 1049.9
20260503024410 15 0.0 0.0 0.00 0.00 0.00 93 1050.0
20260503022834 15 0.0 0.0 0.00 0.00 0.00 93 1050.2
20260503021258 15 0.0 0.0 0.00 0.00 0.00 92 1050.1
20260503015722 16 0.0 0.0 0.00 0.00 0.00 92 1050.2
20260503014146 16 0.0 0.0 0.00 0.00 0.00 91 1050.3
20260503012610 16 0.0 0.0 0.00 0.00 0.00 90 1050.4
20260503011034 17 0.0 0.0 0.00 0.00 0.00 89 1050.6
20260503005458 16 0.0 0.0 0.00 0.00 0.00 90 1050.7
20260503003922 17 0.0 0.0 0.00 0.00 0.00 89 1050.8
20260503002346 16 0.0 0.0 0.00 0.00 0.00 90 1050.8
20260503000810 16 0.0 0.0 0.00 0.00 0.00 89 1050.6
20260502235234 16 0.0 0.0 0.00 0.00 0.00 87 1050.8
20260502233658 17 0.0 0.0 0.00 0.00 0.00 86 1051.0
20260502232122 17 0.0 0.0 0.00 0.00 0.00 86 1051.2
20260502230547 17 0.0 0.0 0.00 0.00 0.00 87 1051.1
20260502225011 17 0.0 0.0 0.00 0.00 0.00 87 1051.1
20260502223435 17 0.0 0.0 0.00 0.00 0.00 87 1051.0
20260502221859 17 0.0 0.0 0.00 0.00 0.00 87 1051.1
20260502220323 17 0.0 0.0 0.00 0.00 0.00 87 1051.1
20260502214747 17 0.0 0.0 0.00 0.00 0.00 87 1051.0
20260502213211 17 0.0 0.0 0.00 0.00 0.00 87 1051.0
20260502211635 17 0.0 0.0 0.00 0.00 0.00 87 1050.9
20260502210059 17 0.0 0.0 0.00 0.00 0.00 85 1050.8
20260502204523 17 0.0 0.0 0.00 0.00 0.00 85 1050.7
20260502202947 18 0.0 0.0 0.00 0.00 0.00 83 1050.5
20260502201411 18 0.0 0.0 0.00 0.00 0.00 82 1050.4
20260502195835 18 0.0 0.0 0.00 0.00 0.00 82 1050.4
20260502194259 18 0.0 0.0 0.00 0.00 0.00 80 1050.1
20260502192723 18 0.0 0.0 0.00 0.00 0.00 79 1050.0
20260502191147 20 0.0 0.0 0.00 0.00 0.00 77 1049.9
20260502185611 20 0.0 0.0 0.00 0.00 0.00 76 1050.0
20260502184035 22 0.0 0.0 0.00 0.00 0.00 77 1050.2
20260502182459 20 0.0 0.0 0.00 0.00 0.00 78 1050.4
20260502180923 20 0.0 0.0 0.00 0.00 0.00 77 1050.5
20260502163547 21 0.0 0.0 0.00 0.00 0.00 76 1050.3
20260502162011 21 0.0 0.0 0.00 0.00 0.00 76 1050.5
20260502160436 21 0.0 0.0 0.00 0.00 0.00 77 1050.1
20260502151748 20 0.0 0.0 0.00 0.00 0.00 86 1050.7
20260502150212 19 0.0 0.0 0.00 0.00 0.00 84 1051.1
20260502122612 25 0.0 0.0 0.00 0.00 0.00 51 1051.6
20260502121036 28 0.0 0.0 0.00 0.00 0.00 51 1051.5
20260502115500 28 0.0 0.0 0.00 0.00 0.00 57 1051.9
20260502113924 26 0.0 0.0 0.00 0.00 0.00 66 1052.1
20260502112348 22 0.0 0.0 0.00 0.00 0.00 74 1052.5
20260502110812 20 0.0 0.0 0.00 0.00 0.00 74 1052.9
20260502105236 20 0.0 0.0 0.00 0.00 0.00 67 1053.5
20260502103700 20 0.0 0.0 0.00 0.00 0.00 61 1053.5
20260502102124 22 0.0 0.0 0.00 0.00 0.00 57 1053.5
20260502100548 23 0.0 0.0 0.00 0.00 0.00 56 1053.6
20260502090324 22 0.0 0.0 0.00 0.00 0.00 62 1053.7
20260502071413 21 0.0 0.0 0.00 0.00 0.00 59 1052.5
20260502065837 21 0.0 0.0 0.00 0.00 0.00 60 1052.3
20260502064301 20 0.0 0.0 0.00 0.00 0.00 60 1052.4
20260502062725 20 0.0 0.0 0.00 0.00 0.00 61 1052.5
20260502061149 20 0.0 0.0 0.00 0.00 0.00 61 1052.4
20260502055613 20 0.0 0.0 0.00 0.00 0.00 60 1052.4
20260502054037 20 0.0 0.0 0.00 0.00 0.00 60 1052.2
20260502052501 20 0.0 0.0 0.00 0.00 0.00 60 1052.3
20260502050925 20 0.0 0.0 0.00 0.00 0.00 60 1052.3